{"data":{"norad_id":60915,"intl_designator":"2024-154N","name":"STARLINK-11271 [DTC]","alt_names":[],"object_type":"PAYLOAD","status":"ACTIVE","operator":null,"country":"US","launch_date":"2024-08-31","launch_site_code":"AFETR","launch_vehicle":null,"mission":null,"orbit_class":"UNKNOWN","rcs_meters":null,"size_class":null,"mass_kg":null,"dimensions":null,"purposes":["comms"],"wikipedia_slug":null,"has_3d_model":false,"image_url":null,"decayed_at":null,"tle_current":{"epoch":"2026-09-21T03:10:41.570976Z","epoch_age_seconds":133929,"freshness":"FRESH","line1":"1 60915U 24154N   26264.13242559  .00027380  00000+0  23147-3 0  9997","line2":"2 60915  53.1608 247.5959 0002177  70.7773 289.3480 15.69565807119204","mean_motion":15.69565807,"eccentricity":0.0002177,"inclination_deg":53.1608,"raan_deg":247.5959,"arg_perigee_deg":70.7773,"mean_anomaly_deg":289.348,"bstar":0.00023147,"rev_number":11920,"period_min":91.745117890428,"perigee_km":358.6724844067,"apogee_km":361.60632995439,"semimajor_km":6738.2764071805,"source":"CELESTRAK","updated_at":"2026-09-22T09:00:49.285134Z"}}}